FW0185 Weather Reports


Display with metric or nautical units.
time (UTC)temp
F
wind
direction
speed
MPH
gust
MPH
rain 1hr
in
rain 24hr
in
rain mn
in
humidity
%
barometer
mb
20210624050056 59 68 0.0 0.0 0.00 0.00 0.00 89 1024.8
20210624043047 59 68 0.0 0.0 0.00 0.00 0.00 89 1024.9
20210624041540 60 68 0.0 1.0 0.00 0.00 0.00 89 1024.8
20210624040151 60 68 0.0 0.0 0.00 0.00 0.00 89 1024.8
20210624034601 60 68 0.0 0.0 0.00 0.00 0.00 88 1024.7
20210624033047 60 68 0.0 0.0 0.00 0.00 0.00 88 1024.5
20210624031606 61 68 0.0 0.0 0.00 0.00 0.00 88 1024.6
20210624030104 61 68 0.0 0.0 0.00 0.00 0.00 88 1024.4
20210624024544 62 68 0.0 0.0 0.00 0.00 0.00 87 1024.4
20210624023108 62 68 0.0 0.0 0.00 0.00 0.00 87 1024.3
20210624021554 62 68 0.0 0.0 0.00 0.00 0.00 86 1024.1
20210624020116 63 68 0.0 0.0 0.00 0.00 0.00 85 1024.0
20210624014527 64 68 0.0 0.0 0.00 0.00 0.00 84 1023.8
20210624013028 64 68 0.0 0.0 0.00 0.00 0.00 82 1023.7
20210624011612 65 68 0.0 0.0 0.00 0.00 0.00 81 1023.6
20210624010033 66 68 0.0 0.0 0.00 0.00 0.00 79 1023.5
20210624004542 68 68 0.0 0.0 0.00 0.00 0.00 76 1023.3
20210624003015 69 68 0.0 0.0 0.00 0.00 0.00 74 1023.2
20210624001517 70 68 0.0 0.0 0.00 0.00 0.00 71 1023.0
20210624000017 71 68 0.0 0.0 0.00 0.00 0.00 69 1022.9
20210623234511 72 68 0.0 0.0 0.00 0.00 0.00 67 1022.8
20210623233010 73 68 0.0 1.0 0.00 0.00 0.00 65 1022.8
20210623231519 73 165 0.0 0.0 0.00 0.00 0.00 65 1022.6
20210623230013 74 165 0.0 2.0 0.00 0.00 0.00 62 1022.4
20210623224512 74 89 0.0 1.0 0.00 0.00 0.00 61 1022.4
20210623223026 75 232 0.0 2.0 0.00 0.00 0.00 60 1022.4
20210623221508 76 232 0.0 3.0 0.00 0.00 0.00 58 1022.4
20210623220009 77 49 0.0 3.0 0.00 0.00 0.00 55 1022.2
20210623214523 77 94 0.0 3.0 0.00 0.00 0.00 56 1022.2
20210623213012 78 187 0.0 6.0 0.00 0.00 0.00 56 1022.2
20210623211504 78 177 0.0 2.0 0.00 0.00 0.00 56 1022.4
20210623210002 79 169 0.0 3.0 0.00 0.00 0.00 56 1022.3
20210623204502 80 173 1.0 3.0 0.00 0.00 0.00 54 1022.2
20210623203144 81 326 0.0 4.0 0.00 0.00 0.00 54 1022.2
20210623201737 79 179 2.0 4.0 0.00 0.00 0.00 53 1022.2
20210623200242 80 190 1.0 4.0 0.00 0.00 0.00 54 1022.1
20210623194643 80 225 1.0 4.0 0.00 0.00 0.00 50 1022.1
20210623193152 80 191 1.0 4.0 0.00 0.00 0.00 55 1022.2
20210623191628 79 242 1.0 5.0 0.00 0.00 0.00 54 1022.1
20210623190120 79 77 0.0 3.0 0.00 0.00 0.00 58 1022.3
20210623184659 78 184 1.0 4.0 0.00 0.00 0.00 59 1022.4
20210623183110 79 233 1.0 4.0 0.00 0.00 0.00 57 1022.5
20210623181605 77 107 0.0 2.0 0.00 0.00 0.00 62 1022.5
20210623180142 77 176 1.0 6.0 0.00 0.00 0.00 59 1022.7
20210623174648 78 174 1.0 4.0 0.00 0.00 0.00 57 1022.7
20210623173151 79 36 0.0 6.0 0.00 0.00 0.00 55 1022.7
20210623171647 79 172 0.0 4.0 0.00 0.00 0.00 57 1022.7
20210623170108 78 67 1.0 5.0 0.00 0.00 0.00 57 1022.6
20210623164643 78 65 1.0 6.0 0.00 0.00 0.00 59 1022.7
20210623163100 78 238 2.0 5.0 0.00 0.00 0.00 56 1022.6
20210623161653 77 219 0.0 3.0 0.00 0.00 0.00 57 1022.6
20210623160120 77 139 1.0 4.0 0.00 0.00 0.00 61 1022.5
20210623154543 76 22 0.0 6.0 0.00 0.00 0.00 64 1022.6
20210623153037 76 166 0.0 4.0 0.00 0.00 0.00 61 1022.5
20210623151636 76 158 1.0 4.0 0.00 0.00 0.00 60 1022.2
20210623150051 75 246 0.0 3.0 0.00 0.00 0.00 63 1022.1
20210623144538 74 280 0.0 3.0 0.00 0.00 0.00 65 1021.8
20210623143050 72 176 2.0 7.0 0.00 0.00 0.00 64 1021.6
20210623141541 72 179 1.0 6.0 0.00 0.00 0.00 65 1021.6
20210623140034 72 170 0.0 3.0 0.00 0.00 0.00 72 1021.6
20210623134509 70 208 1.0 5.0 0.00 0.00 0.00 71 1021.5
20210623133008 70 297 0.0 3.0 0.00 0.00 0.00 75 1021.5
20210623131509 68 172 0.0 4.0 0.00 0.00 0.00 81 1021.3
20210623130150 65 166 0.0 3.0 0.00 0.00 0.00 88 1021.3
20210623124633 65 186 0.0 3.0 0.00 0.00 0.00 93 1021.1
20210623123303 63 129 0.0 3.0 0.00 0.00 0.00 93 1020.9
20210623121723 62 149 0.0 2.0 0.00 0.00 0.00 93 1020.8
20210623120226 63 335 0.0 4.0 0.00 0.00 0.00 93 1020.5
20210623114617 62 200 0.0 1.0 0.00 0.00 0.00 93 1020.2
20210623113100 62 143 0.0 0.0 0.00 0.00 0.00 93 1020.0
20210623111615 61 121 0.0 0.0 0.00 0.00 0.00 93 1019.8
20210623110115 61 121 0.0 0.0 0.00 0.00 0.00 93 1019.7
20210623104545 60 121 0.0 0.0 0.00 0.00 0.00 93 1019.6
20210623103100 60 121 0.0 0.0 0.00 0.00 0.00 93 1019.4
20210623101555 60 121 0.0 0.0 0.00 0.00 0.00 93 1019.3
20210623100054 59 121 0.0 0.0 0.00 0.00 0.00 93 1019.1
20210623094609 59 121 0.0 0.0 0.00 0.00 0.00 93 1018.8
20210623093109 59 121 0.0 0.0 0.00 0.00 0.00 93 1018.5
20210623091529 59 121 0.0 0.0 0.00 0.00 0.00 93 1018.4
20210623081623 59 121 0.0 0.0 0.00 0.00 0.00 92 1017.4
20210623080153 59 121 0.0 0.0 0.00 0.00 0.00 92 1017.2
20210623074559 59 122 0.0 0.0 0.00 0.00 0.00 92 1017.1
20210623073116 59 121 0.0 0.0 0.00 0.00 0.00 92 1016.9
20210623071602 60 121 0.0 0.0 0.00 0.00 0.00 92 1016.8
20210623070212 60 121 0.0 0.0 0.00 0.00 0.00 92 1016.9
20210623064613 60 121 0.0 0.0 0.00 0.00 0.00 92 1016.9
20210623063125 60 121 0.0 0.0 0.00 0.00 0.00 92 1017.0
20210623061547 60 121 0.0 0.0 0.00 0.00 0.00 92 1017.0
20210623060113 61 121 0.0 0.0 0.00 0.00 0.00 92 1016.9
20210623054628 61 121 0.0 0.0 0.00 0.00 0.00 92 1016.8
20210623053112 61 121 0.0 0.0 0.00 0.00 0.00 92 1016.7
20210623051702 61 121 0.0 0.0 0.00 0.00 0.00 91 1016.6